GFSFLT1_700_temp_276.txt.gz
Temp
16 16 15 14 15 14 13 13 12 11 10 11 11 11 11 11 11 11 11 11 11 11 11 11 11 11 11 10 10 10 10 10 9
16 16 16 15 14 14 14 13 13 12 12 12 12 12 12 11 11 11 11 11 11 11 11 11 11 11 11 11 11 10 10 10 10
16 16 15 15 14 14 13 14 13 13 12 12 12 12 12 12 11 11 11 11 11 11 11 11 11 10 10 10 11 10 10 10 10
16 17 16 16 15 14 14 14 13 13 12 12 12 12 12 12 11 11 11 11 11 11 11 11 11 10 10 10 10 10 10 10 10
16 17 16 16 15 15 14 14 13 13 13 12 12 11 11 11 11 11 11 11 11 10 11 10 10 10 10 10 10 10 10 10 10
16 16 16 16 15 15 15 14 14 13 13 12 12 11 11 11 11 11 11 10 10 10 10 10 10 10 10 10 10 10 10 10 10
17 17 18 17 16 16 16 15 15 14 13 13 13 12 12 11 11 10 10 10 10 10 10 10 10 10 10 10 9 9 9 9 9
17 17 17 17 16 16 16 16 15 15 14 14 13 13 12 11 11 10 10 10 10 10 10 10 10 9 9 9 9 9 9 9 9
17 17 16 16 17 16 16 16 15 15 15 14 14 13 12 12 11 10 10 10 10 10 9 9 9 9 9 9 9 9 9 9 9
16 16 16 16 16 16 16 16 15 15 14 15 14 13 12 11 11 11 10 10 10 10 10 9 9 9 9 9 9 9 9 9 8
16 16 15 15 15 15 15 15 14 12 11 11 12 13 12 12 11 10 11 10 10 9 9 9 9 9 9 8 8 9 9 8 8
16 15 15 15 15 14 14 13 13 12 12 12 9 10 10 11 10 11 10 10 9 9 9 8 8 8 8 8 8 8 8 8 7
15 15 15 15 14 14 14 13 12 11 11 11 10 6 6 9 10 9 9 9 10 10 8 8 8 8 8 8 8 8 8 7 7
13 13 14 14 14 14 13 12 11 10 8 10 9 6 8 7 8 9 9 9 8 9 8 7 7 8 8 8 8 8 7 7 6
12 12 13 13 12 12 12 11 11 11 9 9 9 7 8 8 7 8 8 8 8 7 7 7 7 7 8 8 7 7 6 6 6
11 11 11 12 12 12 11 11 11 9 9 9 8 9 7 7 7 7 7 7 7 7 6 7 7 7 7 7 6 6 6 6 6
9 10 10 11 10 10 10 11 10 9 9 9 9 8 6 6 7 7 7 7 7 6 6 6 6 6 6 6 5 6 6 5 5
9 9 9 9 9 10 9 9 9 8 8 8 8 7 6 6 6 6 6 6 6 6 6 5 5 5 5 5 5 5 5 5 5
8 8 9 9 9 9 9 9 8 8 7 6 6 6 5 6 6 5 5 6 5 5 5 5 4 4 4 3 3 4 3 3 3
8 8 8 8 8 8 7 8 7 6 6 6 5 5 5 4 5 6 6 6 5 5 5 4 3 3 3 3 3 3 3 2 2

GFSFLT1_700_temp_279.txt.gz
Temp
16 16 16 16 14 13 12 12 12 10 9 9 10 10 10 10 10 10 10 10 10 10 10 10 10 10 10 10 10 10 10 10 10
17 16 16 15 15 14 13 12 12 11 10 11 11 10 10 10 11 11 10 10 10 10 10 10 10 10 10 10 10 10 10 10 10
18 17 16 16 15 14 13 13 13 12 12 12 11 11 11 11 11 10 10 10 10 10 10 10 10 9 10 10 10 10 10 10 10
18 17 17 16 15 14 13 13 13 13 13 13 12 12 12 12 11 11 11 11 10 10 10 10 10 10 9 9 9 9 9 9 9
17 17 17 15 14 15 15 14 14 13 13 13 13 12 12 12 12 11 11 11 11 11 11 10 10 10 10 10 10 10 10 9 9
17 17 17 15 15 15 15 15 14 13 13 13 13 13 12 12 12 11 11 11 11 11 10 11 10 10 10 10 10 10 10 10 10
17 17 17 16 16 16 16 15 15 14 14 13 13 12 12 12 12 12 11 11 11 11 11 10 10 10 10 10 10 10 9 9 9
17 17 17 17 16 16 16 15 15 15 15 14 13 13 12 12 11 11 11 11 11 11 10 10 10 10 9 9 9 9 9 9 9
17 17 16 16 16 16 16 16 15 14 13 12 11 12 12 11 10 10 10 10 10 10 10 9 9 9 9 9 9 9 9 9 9
16 16 16 16 16 16 15 15 14 13 12 12 13 12 11 11 10 10 9 9 9 9 10 10 9 9 9 9 9 9 8 9 9
16 15 15 15 15 15 15 14 14 13 12 13 12 11 10 9 10 10 9 9 8 9 9 9 9 9 9 8 9 8 8 8 8
14 15 15 15 15 15 15 14 14 13 13 12 11 11 8 8 9 9 9 9 7 8 8 8 9 9 8 8 8 8 8 8 7
15 15 15 14 14 14 14 14 14 13 13 12 10 8 8 7 8 8 9 9 6 7 7 7 8 8 8 8 8 8 8 7 7
13 12 12 12 12 12 12 12 12 12 11 9 9 8 8 8 8 8 7 7 7 7 7 6 7 8 7 7 8 7 7 7 6
11 11 11 11 11 12 11 11 10 9 9 9 10 9 8 8 8 6 6 5 8 6 7 7 7 7 7 7 7 7 6 6 6
10 10 10 10 11 11 10 10 10 9 10 8 8 8 7 6 5 5 6 6 5 5 6 6 7 7 7 7 6 6 6 5 5
9 10 10 10 10 10 10 10 8 9 8 7 6 7 6 5 5 5 5 5 5 6 6 6 6 7 6 6 6 5 5 5 5
9 9 10 9 10 10 9 9 8 8 7 7 7 6 5 5 5 5 6 6 6 6 6 6 6 6 5 5 5 4 4 4 3
9 9 9 9 10 10 9 8 8 7 7 7 6 5 5 5 5 5 5 5 5 5 5 5 5 5 5 4 4 4 3 3 3
8 9 9 9 9 8 8 7 6 5 6 5 6 5 5 5 5 5 5 5 5 5 5 5 4 4 3 3 3 4 3 3 3

GFSFLT1_700_temp_285.txt.gz
Temp
17 16 16 16 15 14 13 12 12 12 11 10 9 9 9 10 10 10 10 10 10 10 11 11 11 11 11 11 10 10 10 10 10
17 17 16 16 16 15 14 13 12 12 12 11 10 10 10 10 11 11 11 10 10 10 11 11 10 10 10 10 10 10 11 11 10
17 17 17 17 17 16 15 14 13 13 12 12 11 11 11 11 11 11 11 11 10 10 10 10 10 10 10 10 10 10 10 10 10
17 17 17 17 16 16 16 15 15 14 13 12 12 12 12 12 12 12 11 11 11 11 10 10 10 10 10 10 10 10 10 10 10
17 17 17 16 16 16 15 15 15 14 13 13 13 13 13 12 12 12 12 11 11 11 11 11 10 10 10 10 10 10 10 10 10
18 17 17 16 16 15 15 14 14 14 14 13 13 13 13 13 12 12 12 11 11 11 11 10 10 10 10 10 10 10 10 10 9
18 17 17 17 16 16 16 15 15 15 15 14 13 13 13 13 12 12 11 11 10 10 10 10 10 10 10 10 9 9 9 9 9
18 18 17 17 16 16 16 15 15 14 14 14 14 14 13 13 12 12 12 11 10 10 9 9 9 9 9 9 10 9 9 9 9
18 18 17 17 16 16 15 15 15 14 14 14 13 13 13 13 13 12 12 11 10 10 9 9 9 9 9 9 9 9 8 8 9
17 17 17 17 17 16 16 15 15 15 15 15 13 12 12 12 11 11 10 9 9 9 8 8 8 9 9 9 9 9 8 8 8
16 16 16 16 16 16 15 15 15 15 15 14 13 12 11 10 10 9 8 7 8 8 8 9 8 8 8 8 8 8 8 8 8
15 15 16 16 16 15 15 15 15 14 14 14 13 12 11 10 9 9 9 9 9 9 9 8 7 7 7 7 8 8 7 7 7
15 14 14 14 14 14 14 14 13 13 13 12 12 11 11 10 10 9 9 9 8 8 8 7 7 7 7 7 6 7 7 7 7
14 13 13 13 12 12 12 12 11 11 11 11 11 10 10 8 9 8 8 8 8 8 8 7 7 7 6 6 6 5 6 6 6
13 12 12 11 11 11 10 10 11 11 11 11 10 9 8 7 7 7 7 8 8 8 7 6 6 6 5 5 4 3 4 5 5
12 11 11 11 10 10 10 10 10 10 10 9 9 7 6 6 6 6 6 7 8 6 5 5 5 5 5 4 4 4 4 4 4
11 11 10 10 9 10 10 10 9 9 9 8 7 6 6 5 5 5 6 6 6 5 5 5 5 4 4 3 3 3 2 3 4
11 10 10 9 9 9 9 9 8 8 8 7 7 6 5 5 5 5 5 5 5 4 5 4 3 3 3 2 2 2 3 3 3
10 9 8 9 9 8 8 8 8 8 7 6 6 5 5 5 5 4 5 4 4 4 4 3 3 2 2 2 2 2 2 2 2
9 8 8 8 8 8 7 7 7 7 6 5 5 4 4 4 4 3 4 3 3 3 3 3 3 3 2 2 2 2 2 3 3

GFSFLT1_700_temp_291.txt.gz
Temp
17 17 17 16 15 14 14 13 13 13 13 12 11 10 10 10 10 11 11 11 11 11 11 11 12 11 11 11 11 11 11 11 11
17 17 17 16 15 15 15 14 14 14 13 13 12 11 11 11 11 11 11 11 11 11 11 11 12 11 11 11 11 11 11 11 11
18 17 16 16 15 17 16 16 15 15 14 14 13 13 12 12 12 12 12 12 12 11 10 10 11 11 11 11 11 10 10 11 10
18 17 17 17 17 17 17 16 16 15 15 14 14 14 13 13 13 13 12 12 12 12 11 10 11 11 11 11 11 11 11 11 10
18 17 16 16 17 17 17 16 16 16 15 15 15 14 14 13 13 13 13 13 12 12 11 11 11 11 11 11 11 10 10 10 10
18 17 16 15 15 17 16 16 16 16 15 15 15 15 14 13 13 13 13 13 13 12 12 11 11 11 11 11 10 10 10 10 10
16 17 16 15 15 14 16 15 15 15 14 14 14 13 14 14 13 13 12 12 13 12 12 11 10 10 10 10 10 10 10 10 10
17 16 15 14 14 15 15 15 15 15 15 14 14 14 13 13 13 13 12 11 12 11 11 11 10 9 9 9 9 9 10 9 9
17 17 17 17 17 16 16 15 15 14 14 14 14 13 13 12 12 12 12 11 11 10 10 8 10 10 9 8 8 8 9 9 9
17 17 16 16 16 15 15 15 14 14 14 14 14 14 13 13 13 12 12 11 10 10 9 9 10 9 9 9 8 8 8 7 8
17 16 16 15 15 15 15 14 14 14 14 14 13 13 13 13 12 11 11 10 10 10 10 9 9 9 9 9 8 8 7 6 7
16 16 16 16 15 15 15 14 14 13 13 13 12 12 12 11 11 11 11 10 10 10 9 9 9 9 9 8 8 8 7 6 6
16 15 15 15 14 14 14 13 13 13 12 12 12 11 11 11 11 11 10 9 9 9 9 9 9 8 8 8 7 7 7 6 6
15 14 15 14 13 13 12 12 12 11 11 11 11 11 11 11 10 9 8 8 8 8 8 9 10 7 7 7 6 6 6 6 5
14 14 14 13 12 12 11 11 11 11 11 11 11 10 10 9 8 7 7 7 7 8 8 8 8 7 6 6 7 6 5 5 5
14 13 12 12 11 11 10 10 10 10 10 10 10 10 8 7 7 7 7 6 6 7 7 7 7 7 6 6 6 5 4 4 3
13 13 12 11 10 10 10 10 9 9 9 9 8 8 8 7 7 6 6 7 6 6 6 6 5 5 5 5 4 4 3 3 3
13 12 11 10 10 9 9 9 9 8 8 8 7 7 7 6 6 6 5 5 5 5 5 5 5 5 5 4 4 4 3 3 3
12 11 10 9 9 9 9 8 8 7 7 7 7 7 7 6 6 6 5 5 5 5 5 4 4 3 3 3 3 3 3 3 2
12 10 9 9 9 9 9 8 7 7 7 6 6 6 6 5 5 4 4 4 4 4 4 4 4 3 3 3 3 3 3 2 2